Other Surface Observations
Issued by NWS

Home | Current Version | Previous Version | Text Only | Print | Product List | Glossary On
Versions: 1 2 3 4 5 6 7 8 9 10 11 12 13 14 15 16 17 18 19 20 21 22 23 24 25 26 27 28 29 30 31 32 33 34 35 36 37 38 39 40 41 42 43 44 45 46 47 48 49 50
000
SXUS52 KTAE 071118
OSOTAE
OSOTAE
North Florida/South Alabama/Southwest Georgia Weather Roundup
National Weather Service Tallahassee Florida
700 AM EDT TUE JUL 07 2015

Note: "fair" indicates few or no clouds below 12,000 feet with no
significant weather and/or obstructions to visibility.

!FLZ017-115-028-034-025-071200
...North Florida...

CITY           SKY/WX    TMP DP  RH WIND       PRES   REMARKS
TALLAHASSEE    PTCLDY    72  70  93 CALM      30.15R
APALACHICOLA   PTCLDY    76  71  85 CALM      30.15R
PERRY          CLEAR     71  71 100 CALM      30.16R FOG
CROSS CITY       N/A     71  69  93 CALM      30.15R
JACKSONVILLE   PTCLDY    71  70  96 SW3       30.15R
$$

!FLZ112-006-005-002-011-071200
...Florida Panhandle...

CITY           SKY/WX    TMP DP  RH WIND       PRES   REMARKS
MARIANNA       CLEAR     73  73 100 CALM      30.14R
BONIFAY        FAIR      71  70  96 CALM      30.16R
PANAMA CITY NW FAIR      72  70  93 CALM      30.14R
TYNDALL AFB    CLEAR     73  72  94 CALM      30.15R FOG
TYND DRONE APT FAIR      73  72  99 CALM      30.14R
DE FUNIAK SPR  FAIR      72  70  94 NW5       30.16R
EGLIN AFB      CLEAR     73  68  86 CALM      30.14R
DESTIN         CLEAR     75  72  90 CALM      30.14R
HURLBURT       CLEAR     72  68  89 N1        30.13R
CRESTVIEW      CLEAR     69  68  96 CALM      30.16R
PENSACOLA      CLEAR     75  72  90 CALM      30.14R
$$

!ALZ063-066-071200
...South Alabama...

CITY           SKY/WX    TMP DP  RH WIND       PRES   REMARKS
DOTHAN         CLEAR     73  71  93 CALM      30.19R
OZARK CAIRNS   CLEAR     71  70  98 W1        30.15R
FT RUCKER HELI CLEAR     70  68  93 CALM      30.14R
RUCKER HELI 3  FAIR      71  70  97 W2        30.17R
RUCKER HELI 2  FAIR      69  69 100 CALM      30.14R
FLORALA APT    CLEAR     71  68  90 CALM      30.17R
ANDALUSIA      CLEAR     74  70  87 CALM      30.15R FOG
TROY           CLEAR     70  69  97 CALM      30.16R
EUFALA         FAIR      69  68  96 CALM      30.14R
MOBILE         PTCLDY    76  75  97 CALM      30.15R
$$

!GAZ120>161-071200
...Southwest and South Central Georgia...

CITY           SKY/WX    TMP DP  RH WIND       PRES   REMARKS
THOMASVILLE    FAIR      72  72 100 CALM      30.16S
BAINBRIDGE     CLEAR     73  72  94 CALM      30.15S
MOODY AFB      CLEAR     71  69  95 S3        30.14R
VALDOSTA       PTCLDY    70  69  97 CALM      30.16R
MOULTRIE       CLEAR     72  70  94 CALM      30.16R
BLAKELY        CLEAR     72  72 100 CALM      30.16R FOG
ALBANY         CLEAR     72  70  93 CALM      30.16S
TIFTON         FAIR      72  71  98 CALM      30.15S
FITZGERALD     FAIR      73  71  96 CALM      30.17R FOG
CORDELE        FAIR      73  72  98 CALM      30.16R FOG
AMERICUS       FAIR      70  70 100 CALM      30.18R
HOMERVILLE     FAIR      72  72 100 CALM      30.16R
$$

!GMZ750-755-770-775-071200
...Coastal and Buoy Obs...

STATION/POSITION TIME  TEMP    WIND        PRES    VSBY  WAVE
                       AIR SEA DIR/SP/G                  HT/PER
                 (UTC) (F)     (DEG/KT/KT) (MB)    (MI)  (FT/S)
KEATON BEACH     1100   76     360/  1/  2 1021.0R
CEDAR KEY        1100   80     160/  8/ 10 1021.2R
C TOWER          1100   81     300/  6/  6 1020.8R
APALACHICOLA BUO 1050   83 85  320/  6/  6 1020.9R         1/ 9
PANAMA CITY BUOY 1050   82 84  290/  4/  4 1021.0R         2/ 5
MOBILE BUOY      1050   84 86  200/  8/ 10 1020.4R         2/ 4
ORANGE BCH AL BU 1050   84 85  230/ 10/ 10 1019.7R         1/ 5
$$



USA.gov is the U.S. government's official web portal to all federal, state and local government web resources and services.